Regional Weather Roundup
Issued by NWS

Home | Current Version | Previous Version | Graphics & Text | Print | Product List | Glossary On
Versions: 1 2 3 4 5 6 7 8 9 10 11 12 13 14 15 16 17 18 19 20 21 22 23 24 25 26 27 28 29 30 31 32 33 34 35 36 37 38 39 40 41 42 43 44 45 46 47 48 49 50
777
ASUS43 KOAX 131902
RWRNE

WEATHER ROUNDUP FOR NEBRASKA
NATIONAL WEATHER SERVICE OMAHA NE
100 PM CST WED DEC 13 2017

NOTES: SATELLITE DATA IS BEING USED TO AUGMENT CLOUD COVER ABOVE
       12000 FEET.
       "FAIR" INDICATES FEW OR NO CLOUDS BELOW 12,000 FEET WITH NO
       SIGNIFICANT WEATHER AND/OR OBSTRUCTIONS TO VISIBILITY.


NEZ001>004-019>022-054>056-132000-
NEBRASKA PANHANDLE

CITY           SKY/WX    TMP DP  RH WIND       PRES   REMARKS
SCOTTSBLUFF    SUNNY     50  15  24 NW22G32   30.07F
ALLIANCE       SUNNY     47  16  29 NW26G38   30.03F
CHADRON        SUNNY     48  17  29 NW23G32   30.04F
GORDON         FAIR      46  23  39 NW21G31   30.00F
KIMBALL        SUNNY     48  14  25 N23       30.08F
SIDNEY         SUNNY     50  14  23 NW32G38   30.04F
$$

NEZ057>060-069>072-079>082-132000-
SOUTHWEST NEBRASKA

CITY           SKY/WX    TMP DP  RH WIND       PRES   REMARKS
NORTH PLATTE   SUNNY     53  14  21 NW25G32   29.97F
IMPERIAL       SUNNY     52  15  23 NW26G33   30.01F
LEXINGTON      SUNNY     53  19  26 NW28G37   29.94F
MCCOOK         SUNNY     55  17  22 NW32G45   29.97F
OGALLALA       SUNNY     52  16  23 NW25G33   30.00F
$$

NEZ005>010-023>029-035>040-094-132000-
NORTH CENTRAL NEBRASKA

CITY           SKY/WX    TMP DP  RH WIND       PRES   REMARKS
VALENTINE      SUNNY     47  25  42 NW25G38   29.95F
AINSWORTH      MOSUNNY   46  28  50 NW25G33   29.94S
BROKEN BOW     SUNNY     50  24  36 NW29G44   29.92S
O`NEILL        SUNNY     46  29  52 NW33G39   29.88F
ORD            SUNNY     50  25  37 NW23G43   29.88F
THEDFORD       SUNNY     47  24  39 NW25G35   29.97F
$$

NEZ041-046>049-061>064-073>077-083>087-132000-
SOUTH CENTRAL NEBRASKA

CITY           SKY/WX    TMP DP  RH WIND       PRES   REMARKS
GRAND ISLAND   SUNNY     52  25  35 NW25G37   29.88F
AURORA         SUNNY     53  25  33 N26G32    29.86F
HASTINGS       SUNNY     53  23  31 NW28G40   29.90F
HEBRON         SUNNY     56  23  28 N21G28    29.87F
HOLDREGE       SUNNY     53  26  34 NW24G31   29.93S
KEARNEY        SUNNY     52  22  30 NW22G35   29.92F
YORK           SUNNY     52  27  37 NW29      29.85S
$$

NEZ011>018-030>034-042>045-132000-
NORTHEAST NEBRASKA

CITY           SKY/WX    TMP DP  RH WIND       PRES   REMARKS
NORFOLK        SUNNY     48  29  47 NW24G36   29.81R
ALBION         SUNNY     50  29  43 NW23G32   29.85F
BLAIR          SUNNY     49  32  50 NW25G35   29.76S
FREMONT        SUNNY     50  29  44 NW25G36   29.81S
TEKAMAH        SUNNY     49  30  48 NW26G37   29.78S
WAYNE          MOSUNNY   46  27  47 NW21G37   29.81S
$$

NEZ050>053-065>068-078-088>093-132000-
SOUTHEAST NEBRASKA

CITY           SKY/WX    TMP DP  RH WIND       PRES   REMARKS
LINCOLN        SUNNY     54  28  36 NW26G35   29.83S
OMAHA EPPLEY   MOSUNNY   51  30  44 NW29G38   29.75S
BEATRICE       SUNNY     55  28  35 NW31      29.83F
FALLS CITY     SUNNY     57  27  31 NW28G36   29.76S
NEBRASKA CITY  SUNNY     54  31  41 NW24G39   29.77F
PLATTSMOUTH    SUNNY     51  31  45 NW28G35   29.77R
$$

NEZ044-045-051>053-067-132000-
OMAHA AREA

CITY           SKY/WX    TMP DP  RH WIND       PRES   REMARKS
OMAHA EPPLEY   MOSUNNY   51  30  44 NW29G38   29.75S
BLAIR          SUNNY     49  32  50 NW25G35   29.76S
FREMONT        SUNNY     50  29  44 NW25G36   29.81S
MILLARD        SUNNY     52  32  45 NW24G32   29.78S
OFFUTT AFB     SUNNY     51  29  41 NW20G33   29.76S
PLATTSMOUTH    SUNNY     51  31  45 NW28G35   29.77R
WAHOO          FAIR      52  28  39 NW28G35   29.80R
$$




USA.gov is the U.S. government's official web portal to all federal, state and local government web resources and services.